N247MB KSAN-KPDX

Flight info

Callsign N247MB
Flight time N/A
Altitude 40000
Route KSAN PADRZ2 EHF SAC MACHU TMBRS4 KPDX
Aircraft B736/M-VGDW/C

Departure

Time 2026-04-24 16:21
Airport San Diego International Airport (KSAN)

Arrival

Time N/A
Airport Portland International Airport (KPDX)
Time Latitude Longitude Altitude Speed Heading
2026-04-24 16:03 32.73360 -117.19891 25 ft 0 kts 148°
2026-04-24 16:12 32.73393 -117.19916 30 ft 4 kts 144°
2026-04-24 16:12 32.73414 -117.19936 26 ft 4 kts 132°
2026-04-24 16:12 32.73423 -117.19964 26 ft 1 kts 14°
2026-04-24 16:13 32.73421 -117.19964 26 ft 0 kts 14°
2026-04-24 16:16 32.73422 -117.19964 26 ft 1 kts 14°
2026-04-24 16:16 32.73458 -117.19951 25 ft 7 kts 28°
2026-04-24 16:17 32.73385 -117.19511 30 ft 23 kts 106°
2026-04-24 16:17 32.73275 -117.19060 25 ft 28 kts 105°
2026-04-24 16:18 32.73174 -117.18636 27 ft 25 kts 106°
2026-04-24 16:18 32.73063 -117.18183 22 ft 29 kts 105°
2026-04-24 16:18 32.73011 -117.17962 21 ft 27 kts 105°
2026-04-24 16:19 32.72953 -117.17696 21 ft 0 kts 77°
2026-04-24 16:20 32.73035 -117.17646 23 ft 14 kts 288°
2026-04-24 16:20 32.73287 -117.18679 26 ft 130 kts 287°
2026-04-24 16:20 32.73581 -117.19865 209 ft 165 kts 287°
2026-04-24 16:21 32.74523 -117.22520 1382 ft 183 kts 307°
2026-04-24 16:21 32.75272 -117.23764 2067 ft 187 kts 304°
2026-04-24 16:21 32.76020 -117.25047 2746 ft 191 kts 304°
2026-04-24 16:22 32.76774 -117.26351 3423 ft 192 kts 304°
2026-04-24 16:22 32.78339 -117.29062 4503 ft 217 kts 303°
2026-04-24 16:22 32.79243 -117.30632 4801 ft 240 kts 303°
2026-04-24 16:23 32.80226 -117.32302 5334 ft 256 kts 306°
2026-04-24 16:23 32.81328 -117.34026 6036 ft 266 kts 307°
2026-04-24 16:23 32.82471 -117.35779 6935 ft 270 kts 307°
2026-04-24 16:24 32.84801 -117.39359 8677 ft 278 kts 306°
2026-04-24 16:24 32.85991 -117.41197 9536 ft 282 kts 306°
2026-04-24 16:24 32.87190 -117.43053 10408 ft 285 kts 306°
2026-04-24 16:24 32.88444 -117.44999 10739 ft 309 kts 305°
2026-04-24 16:25 32.89802 -117.47111 10935 ft 334 kts 305°
2026-04-24 16:25 32.91260 -117.49380 11136 ft 356 kts 305°
2026-04-24 16:25 32.92795 -117.51769 11580 ft 368 kts 305°
2026-04-24 16:26 32.95921 -117.56629 13161 ft 370 kts 304°
2026-04-24 16:26 32.96958 -117.58245 13647 ft 372 kts 304°
2026-04-24 16:26 33.00125 -117.63190 15057 ft 378 kts 304°
2026-04-24 16:27 33.01726 -117.65693 15754 ft 381 kts 304°
2026-04-24 16:27 33.03334 -117.68208 16443 ft 383 kts 303°
2026-04-24 16:27 33.04955 -117.70744 17087 ft 386 kts 303°
2026-04-24 16:27 33.06624 -117.73272 17723 ft 391 kts 308°
2026-04-24 16:28 33.08636 -117.75501 18343 ft 398 kts 315°
2026-04-24 16:28 33.10789 -117.77596 18953 ft 401 kts 316°
2026-04-24 16:28 33.15130 -117.81856 20070 ft 406 kts 315°
2026-04-24 16:29 33.17290 -117.84043 20619 ft 409 kts 314°
2026-04-24 16:29 33.19464 -117.86262 21143 ft 412 kts 314°
2026-04-24 16:29 33.23917 -117.90658 22167 ft 418 kts 315°
2026-04-24 16:30 33.28460 -117.95062 23085 ft 423 kts 315°
2026-04-24 16:30 33.30818 -117.97205 23499 ft 431 kts 322°
2026-04-24 16:30 33.33504 -117.98894 23823 ft 443 kts 330°
2026-04-24 16:31 33.36383 -118.00347 23874 ft 454 kts 331°
2026-04-24 16:31 33.39335 -118.01793 23982 ft 462 kts 332°
2026-04-24 16:31 33.42320 -118.03246 24277 ft 464 kts 332°
2026-04-24 16:31 33.45313 -118.04710 24635 ft 464 kts 332°
2026-04-24 16:32 33.48299 -118.06184 24965 ft 465 kts 331°
2026-04-24 16:32 33.51294 -118.07678 25274 ft 467 kts 331°
2026-04-24 16:32 33.54296 -118.09186 25573 ft 469 kts 331°
2026-04-24 16:32 33.57308 -118.10706 25860 ft 471 kts 330°
2026-04-24 16:33 33.60333 -118.12237 26142 ft 472 kts 330°
2026-04-24 16:33 33.63358 -118.13767 26484 ft 472 kts 330°
2026-04-24 16:33 33.66380 -118.15297 26913 ft 470 kts 330°
2026-04-24 16:33 33.69380 -118.16815 27417 ft 466 kts 330°
2026-04-24 16:34 33.72360 -118.18324 27865 ft 465 kts 330°
2026-04-24 16:34 33.75339 -118.19836 28282 ft 464 kts 330°
2026-04-24 16:34 33.78310 -118.21346 28696 ft 463 kts 330°
2026-04-24 16:34 33.81235 -118.22832 29172 ft 461 kts 329°
2026-04-24 16:35 33.84179 -118.24328 29674 ft 459 kts 329°
2026-04-24 16:35 33.87158 -118.25843 30159 ft 458 kts 329°
2026-04-24 16:35 33.90085 -118.27334 30632 ft 456 kts 329°
2026-04-24 16:35 33.93001 -118.28821 31089 ft 455 kts 329°
2026-04-24 16:36 33.95870 -118.30285 31503 ft 454 kts 329°
2026-04-24 16:36 33.98813 -118.31790 31916 ft 453 kts 329°
2026-04-24 16:36 34.01670 -118.33251 32320 ft 452 kts 329°
2026-04-24 16:36 34.04557 -118.34727 32735 ft 450 kts 329°
2026-04-24 16:37 34.07438 -118.36200 33132 ft 449 kts 329°
2026-04-24 16:37 34.10313 -118.37672 33465 ft 449 kts 329°
2026-04-24 16:37 34.13191 -118.39147 33751 ft 449 kts 329°
2026-04-24 16:37 34.16064 -118.40621 34121 ft 448 kts 329°
2026-04-24 16:38 34.18923 -118.42089 34482 ft 446 kts 329°
2026-04-24 16:38 34.21777 -118.43554 34782 ft 445 kts 328°
2026-04-24 16:38 34.24628 -118.45019 35080 ft 445 kts 328°
2026-04-24 16:38 34.27471 -118.46479 35445 ft 443 kts 328°
2026-04-24 16:39 34.30296 -118.47931 35795 ft 441 kts 328°
2026-04-24 16:39 34.33119 -118.49386 36064 ft 441 kts 328°
2026-04-24 16:39 34.35942 -118.50841 36344 ft 440 kts 328°
2026-04-24 16:39 34.38762 -118.52295 36586 ft 440 kts 328°
2026-04-24 16:40 34.41575 -118.53747 36852 ft 439 kts 327°
2026-04-24 16:40 34.44374 -118.55191 37230 ft 435 kts 327°
2026-04-24 16:40 34.47142 -118.56618 37632 ft 430 kts 327°
2026-04-24 16:40 34.49885 -118.58035 37940 ft 427 kts 327°
2026-04-24 16:41 34.52622 -118.59454 38087 ft 428 kts 327°
2026-04-24 16:41 34.55364 -118.60878 38261 ft 428 kts 327°
2026-04-24 16:41 34.58104 -118.62301 38466 ft 428 kts 327°
2026-04-24 16:41 34.60841 -118.63722 38627 ft 429 kts 326°
2026-04-24 16:42 34.63593 -118.65152 38759 ft 430 kts 326°
2026-04-24 16:42 34.66342 -118.66579 38962 ft 429 kts 326°
2026-04-24 16:42 34.69087 -118.68007 39137 ft 429 kts 326°
2026-04-24 16:42 34.71835 -118.69436 39270 ft 430 kts 326°
2026-04-24 16:43 34.74587 -118.70872 39372 ft 431 kts 326°
2026-04-24 16:43 34.77345 -118.72312 39495 ft 431 kts 326°
2026-04-24 16:43 34.80105 -118.73751 39641 ft 431 kts 327°
2026-04-24 16:43 34.82866 -118.75190 39752 ft 432 kts 327°
2026-04-24 16:44 34.85634 -118.76634 39881 ft 433 kts 327°
2026-04-24 16:44 34.88399 -118.78078 40035 ft 433 kts 327°
2026-04-24 16:44 34.93956 -118.80986 40041 ft 435 kts 327°
2026-04-24 16:45 34.99473 -118.83874 40036 ft 433 kts 327°
2026-04-24 16:45 35.04990 -118.86766 40035 ft 431 kts 327°
2026-04-24 16:46 35.10483 -118.89652 40036 ft 429 kts 327°
2026-04-24 16:46 35.15967 -118.92540 40025 ft 429 kts 327°
2026-04-24 16:47 35.21455 -118.95434 40022 ft 430 kts 327°
2026-04-24 16:47 35.26956 -118.98339 40014 ft 431 kts 327°
2026-04-24 16:48 35.32479 -119.01259 40014 ft 433 kts 327°
2026-04-24 16:48 35.38027 -119.04197 40011 ft 435 kts 327°
2026-04-24 16:49 35.43592 -119.07147 40010 ft 437 kts 327°
2026-04-24 16:49 35.49106 -119.10171 40005 ft 433 kts 322°
2026-04-24 16:50 35.54190 -119.14085 40006 ft 428 kts 318°
2026-04-24 16:50 35.59125 -119.18099 40011 ft 429 kts 318°
2026-04-24 16:51 35.64113 -119.22127 40003 ft 430 kts 318°
2026-04-24 16:51 35.69158 -119.26162 40009 ft 430 kts 319°
2026-04-24 16:52 35.74179 -119.30165 40010 ft 430 kts 319°
2026-04-24 16:52 35.79165 -119.34145 40010 ft 430 kts 319°
2026-04-24 16:53 35.84188 -119.38159 40008 ft 430 kts 319°
2026-04-24 16:53 35.89212 -119.42181 40017 ft 431 kts 319°
2026-04-24 16:54 35.94236 -119.46210 40019 ft 431 kts 319°
2026-04-24 16:54 35.99266 -119.50250 40015 ft 432 kts 319°
2026-04-24 16:55 36.04308 -119.54307 40017 ft 432 kts 319°
2026-04-24 16:55 36.09347 -119.58367 40020 ft 433 kts 319°
2026-04-24 16:56 36.14398 -119.62443 40027 ft 433 kts 319°
2026-04-24 16:56 36.19448 -119.66524 40026 ft 434 kts 319°
2026-04-24 16:57 36.24510 -119.70621 40032 ft 435 kts 319°
2026-04-24 16:57 36.29543 -119.74701 40026 ft 435 kts 319°
2026-04-24 16:58 36.34609 -119.78815 40021 ft 436 kts 319°
2026-04-24 16:58 36.39682 -119.82940 40017 ft 435 kts 319°
2026-04-24 16:59 36.44746 -119.87065 40018 ft 435 kts 319°
2026-04-24 17:00 36.52334 -119.93258 40018 ft 435 kts 319°
2026-04-24 17:00 36.59909 -119.99455 40020 ft 434 kts 319°
2026-04-24 17:01 36.67475 -120.05660 40019 ft 434 kts 319°
2026-04-24 17:02 36.75010 -120.11855 40019 ft 435 kts 319°
2026-04-24 17:02 36.80058 -120.16013 40014 ft 435 kts 319°
2026-04-24 17:03 36.87637 -120.22269 40008 ft 435 kts 320°
2026-04-24 17:04 36.92685 -120.26443 40010 ft 436 kts 320°
2026-04-24 17:04 37.00269 -120.32728 40009 ft 436 kts 320°
2026-04-24 17:05 37.05322 -120.36924 40013 ft 436 kts 320°
2026-04-24 17:06 37.12901 -120.43230 40009 ft 436 kts 320°
2026-04-24 17:06 37.20481 -120.49553 40000 ft 436 kts 320°
2026-04-24 17:07 37.25533 -120.53775 40000 ft 436 kts 320°
2026-04-24 17:08 37.35600 -120.62210 40003 ft 436 kts 320°
2026-04-24 17:08 37.40646 -120.66448 39999 ft 436 kts 320°
2026-04-24 17:09 37.50733 -120.74941 40000 ft 436 kts 320°
2026-04-24 17:10 37.60810 -120.83454 40010 ft 436 kts 320°
2026-04-24 17:12 37.80933 -121.00539 40009 ft 437 kts 320°